TimePDT,TemperatureF,Dew PointF,Humidity,Sea Level PressureIn,VisibilityMPH,Wind Direction,Wind SpeedMPH,Gust SpeedMPH,PrecipitationIn,Events,Conditions,WindDirDegrees,DateUTC
12:53 AM,41.0,36.0,82,30.49,3.0,Calm,Calm,-,N/A,,Haze,0,2013-03-10 08:53:00
1:53 AM,41.0,37.0,86,30.50,4.0,Calm,Calm,-,0.00,Rain,Light Rain,0,2013-03-10 09:53:00
3:43 AM,41.0,37.4,87,30.49,2.0,Calm,Calm,-,0.01,Rain,Light Rain,0,2013-03-10 10:43:00
3:53 AM,41.0,37.0,86,30.49,3.0,Calm,Calm,-,0.01,Rain,Light Rain,0,2013-03-10 10:53:00
4:19 AM,41.0,37.4,87,30.49,2.5,Calm,Calm,-,0.00,Rain,Light Rain,0,2013-03-10 11:19:00
5:49 AM,41.0,37.4,87,30.48,1.8,Calm,Calm,-,0.02,Rain,Light Rain,0,2013-03-10 12:49:00
5:53 AM,41.0,37.0,86,30.48,1.8,Calm,Calm,-,0.02,Rain,Light Rain,0,2013-03-10 12:53:00
6:04 AM,41.0,37.4,87,30.47,0.8,Calm,Calm,-,0.01,Rain,Light Rain,0,2013-03-10 13:04:00
6:18 AM,41.0,37.4,87,30.47,1.0,Calm,Calm,-,0.02,Rain,Light Rain,0,2013-03-10 13:18:00
6:25 AM,41.0,37.4,87,30.47,2.0,Calm,Calm,-,0.02,Rain,Light Rain,0,2013-03-10 13:25:00
6:39 AM,41.0,37.4,87,30.47,3.0,Calm,Calm,-,0.02,Rain,Light Rain,0,2013-03-10 13:39:00
6:53 AM,41.0,37.0,86,30.47,3.0,ENE,3.5,-,0.02,,Overcast,70,2013-03-10 13:53:00
7:53 AM,41.0,37.9,89,30.47,2.5,Calm,Calm,-,N/A,,Overcast,0,2013-03-10 14:53:00
8:20 AM,41.0,37.4,87,30.47,1.8,Calm,Calm,-,0.00,Rain,Light Rain,0,2013-03-10 15:20:00
8:41 AM,42.8,37.4,81,30.47,2.0,Calm,Calm,-,0.01,Rain,Light Rain,0,2013-03-10 15:41:00
8:53 AM,42.1,37.9,85,30.48,1.8,Calm,Calm,-,0.01,Rain,Light Rain,0,2013-03-10 15:53:00
9:43 AM,42.8,39.2,87,30.48,2.0,Calm,Calm,-,0.01,Rain,Light Rain,0,2013-03-10 16:43:00
9:53 AM,43.0,39.0,86,30.48,2.5,Calm,Calm,-,0.01,Rain,Light Rain,0,2013-03-10 16:53:00
10:40 AM,44.6,39.2,81,30.47,3.0,Calm,Calm,-,0.01,Rain,Light Rain,0,2013-03-10 17:40:00
10:53 AM,44.1,39.0,82,30.48,3.0,Calm,Calm,-,0.01,Rain,Light Rain,0,2013-03-10 17:53:00
11:08 AM,44.6,39.2,81,30.47,3.0,Calm,Calm,-,0.00,,Haze,0,2013-03-10 18:08:00
11:53 AM,46.0,39.9,79,30.47,3.0,Calm,Calm,-,0.00,,Haze,0,2013-03-10 18:53:00
12:03 PM,46.4,39.2,76,30.46,3.0,Calm,Calm,-,N/A,,Haze,0,2013-03-10 19:03:00
12:15 PM,46.4,39.2,76,30.47,2.0,Calm,Calm,-,0.00,Rain,Light Rain,0,2013-03-10 19:15:00
12:22 PM,46.4,39.2,76,30.47,1.8,Calm,Calm,-,0.00,Rain,Light Rain,0,2013-03-10 19:22:00
12:34 PM,46.4,39.2,76,30.47,2.0,Calm,Calm,-,0.00,Rain,Light Rain,0,2013-03-10 19:34:00
12:42 PM,46.4,39.2,76,30.47,2.0,Calm,Calm,-,0.00,Rain,Light Rain,0,2013-03-10 19:42:00
12:53 PM,46.0,39.9,79,30.47,2.5,Calm,Calm,-,0.00,Rain,Light Rain,0,2013-03-10 19:53:00
1:16 PM,46.4,39.2,76,30.46,3.0,Calm,Calm,-,0.01,Rain,Light Rain,0,2013-03-10 20:16:00
1:26 PM,46.4,41.0,81,30.46,2.0,Calm,Calm,-,0.01,Rain,Light Rain,0,2013-03-10 20:26:00
1:34 PM,46.4,41.0,81,30.46,1.8,Calm,Calm,-,0.02,Rain,Light Rain,0,2013-03-10 20:34:00
1:40 PM,46.4,41.0,81,30.46,2.0,Calm,Calm,-,0.02,Rain,Light Rain,0,2013-03-10 20:40:00
1:51 PM,46.4,41.0,81,30.46,2.0,Calm,Calm,-,0.02,Rain,Light Rain,0,2013-03-10 20:51:00
1:53 PM,46.9,41.0,80,30.46,2.0,Calm,Calm,-,0.02,Rain,Light Rain,0,2013-03-10 20:53:00
2:00 PM,46.4,41.0,81,30.45,1.8,Calm,Calm,-,0.01,Rain,Light Rain,0,2013-03-10 21:00:00
2:09 PM,46.4,41.0,81,30.46,2.0,Calm,Calm,-,0.01,Rain,Light Rain,0,2013-03-10 21:09:00
2:21 PM,46.4,42.8,87,30.45,2.0,Calm,Calm,-,0.01,Rain,Light Rain,0,2013-03-10 21:21:00
2:27 PM,46.4,42.8,87,30.45,1.8,Calm,Calm,-,0.02,Rain,Light Rain,0,2013-03-10 21:27:00
2:30 PM,46.4,42.8,87,30.45,2.0,SW,3.5,-,0.02,Rain,Light Rain,220,2013-03-10 21:30:00
2:40 PM,46.4,41.0,81,30.45,3.0,Calm,Calm,-,0.02,Rain,Light Rain,0,2013-03-10 21:40:00
2:53 PM,46.9,41.0,80,30.45,3.0,West,3.5,-,0.02,,Haze,260,2013-03-10 21:53:00
3:15 PM,46.4,42.8,87,30.45,3.0,Calm,Calm,-,N/A,,Overcast,0,2013-03-10 22:15:00
3:53 PM,46.9,41.0,80,30.45,3.0,Calm,Calm,-,N/A,,Haze,0,2013-03-10 22:53:00
4:53 PM,46.9,41.0,80,30.45,3.0,NW,3.5,-,N/A,,Haze,320,2013-03-10 23:53:00
5:32 PM,48.2,41.0,76,30.44,3.0,Calm,Calm,-,N/A,,Haze,0,2013-03-11 00:32:00
5:43 PM,46.4,41.0,81,30.43,3.0,Calm,Calm,-,N/A,,Haze,0,2013-03-11 00:43:00
5:53 PM,46.9,41.0,80,30.43,3.0,Calm,Calm,-,N/A,,Haze,0,2013-03-11 00:53:00
6:17 PM,48.2,39.2,71,30.42,4.0,Calm,Calm,-,N/A,,Haze,0,2013-03-11 01:17:00
6:53 PM,46.9,41.0,80,30.44,4.0,Calm,Calm,-,N/A,,Haze,0,2013-03-11 01:53:00
7:53 PM,46.0,42.1,86,30.43,3.0,NNW,3.5,-,N/A,,Overcast,330,2013-03-11 02:53:00
8:53 PM,45.0,41.0,86,30.43,4.0,NNW,4.6,-,N/A,,Overcast,340,2013-03-11 03:53:00
9:53 PM,45.0,41.0,86,30.44,4.0,Calm,Calm,-,N/A,,Overcast,0,2013-03-11 04:53:00
10:53 PM,44.1,39.9,85,30.44,4.0,Calm,Calm,-,N/A,,Overcast,0,2013-03-11 05:53:00
11:08 PM,44.6,41.0,87,30.44,2.5,Calm,Calm,-,N/A,,Overcast,0,2013-03-11 06:08:00
11:19 PM,44.6,39.2,81,30.44,4.0,Calm,Calm,-,N/A,,Overcast,0,2013-03-11 06:19:00
11:53 PM,42.1,39.0,89,30.44,2.5,Calm,Calm,-,N/A,,Mostly Cloudy,0,2013-03-11 06:53:00
11:59 PM,42.8,39.2,87,30.44,1.2,Calm,Calm,-,N/A,,Mostly Cloudy,0,2013-03-11 06:59:00
12:16 AM,42.8,37.4,81,30.44,0.2,Calm,Calm,-,N/A,Fog,Fog,0,2013-03-11 07:16:00
12:27 AM,41.0,37.4,87,30.44,0.5,Calm,Calm,-,N/A,Fog,Fog,0,2013-03-11 07:27:00
12:43 AM,41.0,37.4,87,30.44,0.2,Calm,Calm,-,N/A,Fog,Fog,0,2013-03-11 07:43:00
12:53 AM,39.9,37.0,89,30.44,0.5,Calm,Calm,-,N/A,Fog,Fog,0,2013-03-11 07:53:00